SCP
0 0 0 0 0 0 0 0 0 0 0 0 0 0 0 0 0 0 0 0 0 0 0 0 0 0 0 0 0 0 0 0 0 0 0 0 0 0 0 0 0 0 0 0
0 0 0 0 0 0 0 0 0 0 0 0 0 0 0 0 0 0 0 0 0 0 0 0 0 0 0 0 0 0 0 0 0 0 0 0 0 0 0 0 0 0 0 0
0 0 0 0 0 0 0 0 0 0 0 0 0 0 0 0 0 0 0 0 0 0 0 0 0 0 0 0 0 0 0 0 0 0 0 0 0 0 0 0 0 0 0 0
0 0 0 0 0 0 0 0 0 0 0 0 0 0 0 0 0 0 0 0 0 0 0 0 0 0 0 0 0 0 0 0 0 0 0 0 0 0 0 0 0 0 0 0
0 0 0 0 0 0 0 0 0 0 0 0 0 0 0 0 0 0 0 0 0 0 0 0 0 0 0 0 0 0 0 0 0 0 0 0 0 0 0 0 0 0 0 0
0 0 0 0 0 0 0 0 0 0 0 0 0 0 0 0 0 0 0 0 0 0 0 0 0 0 0 0 0 0 0 0 0 0 0 0 0 0 0 0 0 0 0 0
0 0 0 0 0 0 0 0 0 0 0 0 0 0 0 0 0 0 0 0 0 0 0 0 0 0 0 0 0 0 0 0 0 0 0 0 0 0 0 0 0 0 0 0
0 0 0 0 0 0 0 0 0 0 0 0 0 0 0 0 0 0 0 0 0 0 0 0 0 0 0 0 0 0 0 0 0 0 0 0 0 0 0 0 0 0 0 0
0 0 0 0 0 0 0 0 0 0 0 0 0 0 0 0 0 0 0 0 0 0 0 0 0 0 0 0 0 0 0 0 0 0 0 0 0 0 0 0 0 0 0 0
0 0 0 0 0 0 0 0 0 0 0 0 0 0 0 0 0 0 0 0 0 0 0 0 0 0 0 0 0 0 0 0 0 0 0 0 0 0 0 0 0 0 0 0
0 0 0 0 0 0 0 0 0 0 0 0 0 0 0 0 0 0 0 0 0 0 0 0 0 0 0 0 0 0 0 0 0 0 0 0 0 0 0 0 0 0 0 0
0 0 0 0 0 0 0 0 0 0 0 0 0 0 0 0 0 0 0 0 0 0 0 0 0 0 0 0 0 0 0 0 0 0 0 0 0 0 0 0 0 0 0 0
0 0 0 0 0 0 0 0 0 0 0 0 0 0 0 0 0 0 0 0 0 0 0 0 0 0 0 0 0 0 0 0 0 0 0 0 0 0 0 0 0 0 0 0
0 0 0 0 0 0 0 0 0 0 0 0 0 0 0 0 0 0 0 0 0 0 0 0 0 0 0 0 0 0 0 0 0 0 0 0 0 0 0 0 0 0 0 0
0 0 0 0 0 0 0 0 0 0 0 0 0 0 0 0 0 0 0 0 0 0 0 0 0 0 0 0 0 0 0 0 0 0 0 0 0 0 0 0 0 0 0 0
0 0 0 0 0 0 0 0 0 0 0 0 0 0 0 0 0 0 0 0 0 0 0 0 0 0 0 0 0 0 0 0 0 0 0 0 0 0 0 0 0 0 0 0
0 0 0 0 0 0 0 0 0 0 0 0 0 0 0 0 0 0 0 0 0 0 0 0 0 0 0 0 0 0 0 0 0 0 0 0 0 0 0 0 0 0 0 0
0 0 0 0 0 0 0 0 0 0 0 0 0 0 0 0 0 0 0 0 0 0 0 0 0 0 0 0 0 0 0 0 0 0 0 0 0 0 0 0 0 0 0 0
0 0 0 0 0 0 0 0 0 0 0 0 0 0 0 0 0 0 0 0 0 0 0 0 0 0 0 0 0 0 0 0 0 0 0 0 0 0 0 0 0 0 0 0
0 0 0 0 0 0 0 0 0 0 0 0 0 0 0 0 0 0 0 0 0 0 0 0 0 0 0 0 0 0 0 0 0 0 0 0 0 0 0 0 0 0 0 0
0 0 0 0 0 0 0 0 0 0 0 0 0 0 0 0 0 0 0 0 0 0 0 0 0 0 0 0 0 0 0 0 0 0 0 0 0 0 0 0 0 0 0 0
0 0 0 0 0 0 0 0 0 0 0 0 0 0 0 0 0 0 0 0 0 0 0 0 0 0 0 0 0 0 0 0 0 0 0 0 0 0 0 0 0 0 0 0
0 0 0 0 0 0 0 0 0 0 0 0 0 0 0 0 0 0 0 0 0 0 0 0 0 0 0 0 0 0 0 0 0 0 0 0 0 0 0 0 0 0 0 0
0 0 0 0 0 0 0 0 0 0 0 0 0 0 0 0 0 0 0 0 0 0 0 0 0 0 0 0 0 0 0 0 0 0 0 0 0 0 0 0 0 0 0 0
0 0 0 0 0 0 0 0 0 0 0 0 0 0 0 0 0 0 0 0 0 0 0 0 0 0 0 0 0 0 0 0 0 0 0 0 0 0 0 0 0 0 0 0
0 0 0 0 0 0 0 0 0 0 0 0 0 0 0 0 0 0 0 0 0 0 0 0 0 0 0 0 0 0 0 0 0 0 0 0 0 0 0 0 0 0 0 0
Wind_Speed
3 4 8 14 14 8 6 6 7 8 4 5 11 15 14 8 8 10 11 12 14 16 8 8 8 7 7 7 8 9 10 10 10 8 7 7 6 6 7 6 9 9 10 9
3 8 14 8 5 5 5 6 8 8 5 6 9 15 12 9 10 13 15 17 17 12 9 10 9 8 8 9 9 10 11 11 9 6 6 5 8 7 7 6 8 9 10 9
13 9 7 7 6 7 8 10 10 8 6 5 7 11 9 11 10 11 13 16 15 17 17 15 13 11 10 10 11 10 11 11 9 10 10 10 8 7 6 7 7 8 9 9
10 6 6 7 9 11 9 9 9 7 5 6 3 12 8 11 12 14 18 16 15 13 15 15 16 14 13 10 9 10 11 11 12 12 14 17 12 11 7 7 7 9 9 9
10 7 9 10 10 13 9 5 6 5 5 6 3 10 12 7 10 14 17 18 15 13 16 17 16 14 11 10 10 10 11 11 12 10 12 14 12 11 10 9 11 10 8 8
6 4 7 9 6 8 6 6 5 4 2 9 8 10 16 8 12 11 14 13 10 10 12 12 11 10 9 9 10 11 12 12 10 11 11 13 18 17 16 13 12 9 7 6
5 6 5 4 6 4 6 6 1 3 3 11 6 10 14 8 9 9 11 8 5 9 12 14 15 14 13 13 12 12 13 13 13 12 11 12 16 18 19 17 13 12 8 6
6 8 10 10 11 10 9 12 10 9 8 7 4 12 11 7 6 6 5 3 6 9 11 13 14 14 13 13 13 13 14 14 13 13 11 11 12 11 11 11 11 10 8 7
9 8 3 7 5 13 8 9 9 5 2 5 9 10 11 6 8 7 4 4 7 9 10 11 11 12 12 13 12 14 14 13 14 14 13 13 11 10 12 11 10 9 8 8
8 6 2 1 4 3 7 8 6 6 6 8 9 8 8 8 12 8 7 8 8 8 9 10 10 11 10 10 10 11 13 14 14 14 14 12 11 11 12 12 11 10 10 9
7 7 3 3 9 12 8 7 7 7 6 7 8 12 9 10 9 8 11 10 10 11 12 11 10 9 9 9 10 10 11 12 13 14 13 13 12 12 12 11 11 11 10 10
8 5 6 8 5 5 7 10 11 9 8 7 8 14 3 5 5 6 7 8 9 10 10 10 10 10 10 11 11 12 12 12 13 13 13 14 13 13 12 12 11 11 11 9
9 7 4 3 3 4 7 8 10 7 6 8 10 14 1 1 2 2 4 6 8 9 10 10 11 12 13 13 13 13 13 13 12 13 14 14 14 14 13 13 12 11 11 10
9 9 11 13 7 9 9 10 12 11 10 12 19 19 8 4 4 4 4 7 8 10 12 13 13 13 13 13 13 14 13 13 13 13 14 15 15 14 13 13 12 11 11 11
8 10 12 13 7 6 9 12 16 21 21 17 18 21 22 9 9 8 7 7 9 11 13 16 16 15 14 14 14 14 14 14 14 15 14 14 13 12 12 12 11 10 10 10
10 9 10 15 16 12 11 14 18 22 20 24 21 28 17 7 8 8 9 11 13 14 17 17 17 16 18 18 17 16 16 15 14 15 14 13 13 13 13 12 12 11 10 9
8 9 10 14 13 12 22 27 22 17 15 14 25 33 12 9 12 14 13 13 15 17 18 18 20 20 19 19 18 18 16 14 14 14 13 14 14 14 13 13 12 11 11 10
10 10 8 9 11 22 15 11 20 23 22 20 18 18 14 17 14 11 11 13 15 16 16 17 18 18 16 15 14 13 13 15 15 14 14 14 14 14 13 13 12 11 9 9
13 12 9 8 14 13 9 7 11 17 21 22 24 24 19 10 5 10 9 11 15 15 15 15 15 15 15 16 16 15 15 15 16 16 16 16 16 15 14 14 13 10 9 8
13 13 12 12 11 11 10 4 5 7 11 10 14 20 16 6 8 12 5 7 9 7 7 7 8 9 13 14 15 17 17 17 18 18 16 15 15 16 16 14 12 8 8 8
11 12 17 17 13 8 7 3 8 9 10 3 6 9 8 10 10 3 0 1 2 2 2 5 8 9 11 14 16 17 17 19 17 14 13 14 14 14 13 11 9 9 8 8
11 9 10 9 11 10 6 8 10 7 2 2 2 3 4 5 2 1 1 1 1 2 3 5 6 7 8 12 16 16 17 14 12 13 14 14 14 12 10 12 10 9 10 9
10 10 7 9 8 3 5 6 3 3 3 2 2 2 3 3 2 2 2 1 1 2 3 3 6 7 7 10 13 15 12 12 14 14 15 14 13 12 11 12 12 10 9 8
5 2 4 4 5 4 3 2 2 3 3 2 2 2 3 3 3 2 2 2 2 2 2 3 5 6 6 7 8 8 10 12 14 14 13 12 13 11 10 9 10 10 11 10
6 5 4 5 3 2 4 6 5 3 3 2 2 1 3 4 3 3 3 2 2 2 1 2 4 5 5 5 5 7 10 12 12 12 11 11 10 11 10 9 9 11 10 12
5 7 8 7 7 6 5 4 7 6 5 5 4 2 2 3 4 4 3 3 3 2 2 2 3 4 4 5 5 6 8 11 12 10 10 9 8 8 8 8 5 13 12 15
Wind_Direction
128 118 196 206 200 196 182 199 233 248 242 202 230 246 253 238 229 239 234 224 221 221 198 174 175 167 156 154 152 150 145 143 138 132 126 117 106 101 93 88 94 97 100 98
98 229 224 208 198 216 222 243 260 279 261 221 249 255 252 237 225 227 230 229 225 211 180 180 178 174 169 165 163 160 158 156 152 137 126 119 119 106 98 96 92 93 97 99
191 219 202 175 188 200 224 222 238 251 308 294 286 277 235 240 229 234 234 232 225 206 192 184 182 181 173 172 170 166 163 157 146 134 124 118 107 107 102 103 96 90 95 96
229 227 156 175 198 190 235 217 219 238 261 273 248 284 235 227 237 240 241 238 230 206 189 182 180 180 179 172 165 160 159 154 148 147 147 145 143 138 133 126 114 102 96 99
228 195 187 199 200 183 214 196 194 214 233 272 213 272 274 196 235 246 243 240 231 201 185 182 180 176 170 162 161 158 155 152 154 157 157 145 135 128 128 123 116 109 99 95
238 212 203 211 192 176 138 83 59 47 58 267 197 227 273 186 214 236 243 242 226 188 174 167 160 156 157 156 156 156 156 156 157 158 158 149 142 142 140 137 131 122 115 104
258 237 221 159 127 130 137 121 31 308 262 252 193 226 259 228 227 230 247 253 207 166 160 160 162 165 163 161 160 160 159 160 161 158 155 153 150 149 148 145 143 138 133 126
211 249 206 190 175 173 184 166 178 206 230 269 251 240 256 254 261 266 272 244 163 163 167 170 170 167 165 164 163 163 163 162 160 158 153 150 148 146 145 143 143 141 136 131
198 241 234 203 184 154 168 205 182 164 253 277 257 267 292 265 263 249 238 184 179 175 173 170 167 167 166 167 168 167 164 161 160 157 152 151 151 148 145 139 135 132 132 132
181 229 237 159 108 167 160 155 133 170 208 247 265 251 244 234 241 235 217 207 195 177 172 169 171 169 168 167 165 164 165 163 160 157 157 155 151 147 145 141 141 140 137 134
189 209 220 169 186 180 158 172 171 167 183 196 265 261 219 219 234 234 224 207 190 183 180 177 174 170 165 162 164 164 164 160 160 159 155 151 149 147 145 144 145 143 139 140
190 186 224 225 231 206 192 181 166 178 207 207 242 264 215 218 252 247 228 197 185 182 179 175 171 169 170 171 171 170 168 165 164 158 154 153 151 150 149 149 148 146 144 143
160 175 210 259 242 206 212 208 198 184 173 202 226 261 260 273 289 266 205 185 178 175 174 174 176 180 181 179 177 175 172 168 162 157 155 154 156 156 155 153 151 148 145 143
167 185 207 216 200 178 198 207 202 190 212 226 231 249 242 237 251 249 215 192 184 183 183 185 189 189 186 184 181 177 174 169 164 161 161 163 164 161 158 154 153 152 150 149
178 209 221 241 231 181 198 206 208 212 219 226 240 246 247 218 231 238 218 197 190 193 195 196 195 192 188 186 184 180 176 172 168 167 168 168 162 157 154 155 155 153 153 153
191 214 215 238 235 226 228 226 220 222 229 235 249 257 251 220 224 232 220 204 203 206 207 204 199 194 192 190 186 182 180 175 171 172 171 164 160 159 159 158 157 155 154 152
198 203 214 241 233 231 238 231 224 220 218 219 237 250 252 233 226 227 224 212 212 213 210 205 201 200 197 192 187 185 180 170 171 172 168 166 165 164 163 160 159 162 161 158
201 211 224 240 222 235 240 221 214 222 230 223 233 249 240 233 236 233 221 212 218 217 212 209 204 202 195 186 181 174 168 171 174 173 171 170 168 166 164 164 167 165 162 166
206 208 225 231 240 251 263 228 192 206 234 228 230 243 250 247 272 264 230 216 222 219 214 209 202 195 184 180 174 167 170 173 176 179 178 175 172 169 168 172 172 167 165 169
209 210 225 231 234 230 236 216 170 158 241 237 216 234 243 212 235 257 230 224 233 228 212 197 181 172 174 172 165 168 175 178 185 185 180 174 174 173 175 176 169 164 168 172
196 211 225 234 241 241 242 173 133 174 233 230 201 221 218 206 225 258 122 236 227 200 177 156 157 167 172 164 165 175 179 189 187 174 167 169 175 177 174 169 164 162 164 163
190 201 213 218 231 236 193 154 184 207 155 155 183 201 199 204 188 109 77 69 87 100 115 136 147 155 156 162 168 178 188 183 164 161 167 172 176 173 168 168 166 165 165 167
202 199 197 204 220 224 176 189 188 150 162 187 187 194 169 170 182 157 143 125 95 98 109 121 138 141 150 166 174 183 182 160 160 166 173 175 172 173 171 172 170 168 172 177
237 197 179 219 242 234 224 222 202 183 180 176 174 168 165 172 172 163 157 151 132 114 117 120 134 147 162 172 179 175 156 156 163 170 172 170 171 172 172 175 175 177 181 186
205 176 190 224 242 278 255 223 202 179 167 160 155 164 174 162 170 173 175 180 172 146 124 136 155 166 170 162 160 152 154 156 163 167 166 169 173 174 177 185 191 190 196 194
191 179 183 217 209 193 225 213 180 178 191 187 174 169 176 178 178 171 177 179 170 163 148 146 153 157 158 155 155 155 158 160 160 163 168 172 173 175 178 182 197 219 207 215